Starlink 37114

operational
NORAD ID: 68562 Int'l Des: 2026-070 Owner: SPXS Country: US Constellation: starlink
LEOCIRCULAR

Starlink 37114について

説明を読み込み中...

リアルタイム位置

3D地球を読み込み中...

次回通過

高度履歴

Altitude vs Time

uPlot chart will show altitude changes over time

軌道要素

1 68562C 26070V 26093.82131944 .00459750 00000+0 56330-3 0 938
2 68562 53.1621 260.0070 0007882 283.3074 195.3187 16.06954031 14
Epoch: Apr 3, 2026 • Age: 30 hours

現在のステータス

高度 257.6 km
速度 7.75 km/s
衛星直下点 18.32°N, 136.08°E
打ち上げ日 Apr 2, 2026
運用期間 1 days
タイプ internet

技術仕様

分類 Payload
質量 575.00 kg
乾燥質量 530.00 kg
総質量 575.00 kg
長さ 0.30 m
直径 4.10 m
スパン 29.00 m
形状 Box + pan
製造者 SPXS
バスタイプ Starlink V2MO
フェーズステータス In Orbit
所有者/国 SPXS/US

大規模コンステレーション

Loading constellations...